Flag for U.S.A. Weather past 2 weeks in Fresno, California, U.S.A.

Now
57 °F

Passing clouds.


Feels Like: 57 °F
Forecast: 42 / 65 °F
Wind: No wind

Location: Fresno Air Terminal

Current Time: Mar 3, 2015 at 9:07:40 PM

Latest Report: Mar 3, 2015 at 7:53 PM


Visibility: 10 mi

Pressure: 29.97 "Hg

Humidity: 58%

Dew point: 42 °F

Location of FresnoLocation

Historic Weather in Fresno — Graph

°F

Fresno temperature yesterday

Maximum temperature yesterday: 59 °F (at 3:53 PM)
Minimum temperature yesterday: 46 °F (at 5:53 AM)
Average temperature yesterday: 51 °F

Past Weeks' High & Low Weather Summary

 TemperatureHumidityPressure
High74 °F (Feb 17, 1:53 PM)100% (Feb 18, 3:53 AM)30.37 "Hg (Feb 18, 3:53 AM)
Low38 °F (Feb 24, 5:53 AM)33% (Feb 25, 3:53 PM)29.71 "Hg (Feb 27, 5:53 PM)
Average53 °F77%30.01 "Hg
* Reported Feb 16 7:53 PM — Mar 3 7:53 PM, Fresno, Weather by CustomWeather, © 2015

Note: Actual official high and low records may vary slightly from our data, if they occured in-between our weather recording intervals... More about our weather records

Advertising

Fresno weather history for previous 24 hours

 ConditionsComfort  
Time TempWeatherWind HumidityBarometerVisibility
7:53 PM
Tue, Mar 3
57 °FPassing clouds.No wind58%29.97 "Hg10 mi
6:53 PM58 °FPassing clouds.No wind54%29.96 "Hg10 mi
5:53 PM59 °FScattered clouds.6 mph51%29.95 "Hg10 mi
4:53 PM62 °FScattered clouds.12 mph44%29.94 "Hg10 mi
3:53 PM61 °FScattered clouds.10 mph48%29.95 "Hg10 mi
2:53 PM61 °FBroken clouds.12 mph44%29.96 "Hg10 mi
1:53 PM64 °FBroken clouds.14 mph43%29.97 "Hg10 mi
12:53 PM62 °FPartly sunny.10 mph48%29.99 "Hg10 mi
11:53 AM59 °FScattered clouds.7 mph51%30.02 "Hg10 mi
10:53 AM58 °FPassing clouds.3 mph56%30.03 "Hg10 mi
9:53 AM55 °FPassing clouds.5 mph62%30.04 "Hg10 mi
8:53 AM50 °FPassing clouds.No wind71%30.04 "Hg10 mi
7:53 AM47 °FPassing clouds.3 mph77%30.02 "Hg10 mi
6:53 AM41 °FSunny.No wind93%29.99 "Hg10 mi
5:53 AM42 °FClear.No wind89%29.99 "Hg10 mi
4:53 AM42 °FClear.6 mph89%29.99 "Hg10 mi
3:53 AM42 °FClear.3 mph89%29.98 "Hg10 mi
2:53 AM43 °FClear.3 mph89%29.98 "Hg10 mi
1:53 AM45 °FClear.No wind82%29.98 "Hg10 mi
12:53 AM45 °FClear.5 mph86%29.98 "Hg10 mi
11:53 PM
Mon, Mar 2
46 °FClear.No wind83%29.97 "Hg10 mi
10:53 PM47 °FClear.3 mph83%29.96 "Hg10 mi
9:53 PM49 °FPassing clouds.No wind77%29.96 "Hg10 mi
Weather by CustomWeather, © 2015

See weather overviewHow to use our weather pages